This demonstration page uses our WeatherBlox Daily Observations layout. Learn more.

Left ArrowRight Arrow

53.62937, 11.41316

Hourly Observations for May 24, 2022

Temp ( °F °C ) Dew Point ( °F °C ) Humidity (%) Winds ( mph kmh ) Pressure ( in mb ) Visibility ( mi km ) Precip ( " mm )
12:20 am 00:20 Cloudy 66 19 48 9 52 52 ESE 9 15 29.44 997 30 48 N/A
12:50 am 00:50 Mostly Cloudy 66 19 48 9 52 52 ESE 8 13 29.44 997 30 48 N/A
1:20 am 01:20 Cloudy 63 17 50 10 64 64 ESE 7 11 29.44 997 30 48 N/A
1:50 am 01:50 Mostly Cloudy 64 18 50 10 60 60 SSE 6 9 29.44 997 30 48 N/A
2:20 am 02:20 Mostly Cloudy 59 15 54 12 82 82 ESE 3 6 29.44 997 30 48 N/A
2:50 am 02:50 Mostly Cloudy 61 16 54 12 77 77 SE 5 7 29.41 996 30 48 N/A
3:20 am 03:20 Mostly Cloudy 61 16 54 12 77 77 SE 6 9 29.41 996 30 48 N/A
3:50 am 03:50 Mostly Cloudy 57 14 54 12 88 88 S 6 9 29.41 996 30 48 N/A
4:20 am 04:20 Cloudy 59 15 55 13 88 88 SSW 3 6 29.44 997 30 48 N/A
4:50 am 04:50 Cloudy 59 15 57 14 94 94 VRB 6 9 29.44 997 30 48 N/A
5:20 am 05:20 Cloudy 59 15 57 14 94 94 W 12 19 29.44 997 30 48 N/A
5:50 am 05:50 Cloudy 57 14 55 13 94 94 W 9 15 29.47 998 30 48 N/A
6:20 am 06:20 Cloudy 57 14 55 13 94 94 W 8 13 29.50 999 30 48 N/A
6:50 am 06:50 Cloudy 57 14 55 13 94 94 WSW 9 15 29.50 999 30 48 N/A
7:20 am 07:20 Mostly Cloudy 57 14 54 12 88 88 WSW 7 11 29.50 999 30 48 N/A
7:50 am 07:50 Cloudy 59 15 55 13 88 88 WSW 6 9 29.53 1000 30 48 N/A
8:20 am 08:20 Mostly Cloudy 59 15 54 12 82 82 WSW 7 11 29.53 1000 30 48 N/A
8:50 am 08:50 Mostly Cloudy 59 15 54 12 82 82 W 7 11 29.56 1001 30 48 N/A
9:20 am 09:20 Mostly Cloudy 59 15 52 11 77 77 W 10 17 29.56 1001 30 48 N/A
9:50 am 09:50 Mostly Cloudy 59 15 52 11 77 77 WSW 8 13 29.56 1001 30 48 N/A
10:20 am 10:20 Mostly Cloudy 61 16 54 12 77 77 WSW 8 13 29.56 1001 30 48 N/A
10:50 am 10:50 Mostly Cloudy 61 16 54 12 77 77 WSW 6 9 29.59 1002 30 48 N/A
11:20 am 11:20 Mostly Cloudy 63 17 54 12 73 73 VRB 7 11 29.59 1002 30 48 N/A
11:50 am 11:50 Mostly Cloudy 64 18 54 12 68 68 WSW 8 13 29.59 1002 30 48 N/A
12:20 pm 12:20 Partly Cloudy 64 18 54 12 68 68 VRB 7 11 29.59 1002 30 48 N/A
12:50 pm 12:50 Partly Cloudy 64 18 52 11 64 64 WSW 8 13 29.59 1002 30 48 N/A
1:20 pm 13:20 Mostly Cloudy 63 17 52 11 68 68 VRB 6 9 29.62 1003 30 48 N/A
1:50 pm 13:50 Mostly Cloudy with Light Rain 59 15 54 12 82 82 VRB 6 9 29.62 1003 30 48 N/A
2:20 pm 14:20 Mostly Cloudy with Light Rain 59 15 54 12 82 82 VRB 6 9 29.65 1004 6 9 N/A
2:50 pm 14:50 Partly Cloudy with Light Rain 61 16 55 13 83 83 VRB 5 7 29.65 1004 30 48 N/A
3:20 pm 15:20 Mostly Sunny 63 17 52 11 68 68 VRB 8 13 29.65 1004 30 48 N/A
3:50 pm 15:50 Partly Cloudy 63 17 52 11 68 68 VRB 7 11 29.65 1004 30 48 N/A
4:20 pm 16:20 Partly Cloudy 63 17 52 11 68 68 VRB 7 11 29.68 1005 30 48 N/A
4:50 pm 16:50 Mostly Sunny 64 18 50 10 60 60 VRB 8 13 29.68 1005 30 48 N/A
5:20 pm 17:20 Partly Cloudy with Showers Nearby 64 18 48 9 56 56 VRB 9 15 29.68 1005 30 48 N/A
5:50 pm 17:50 Mostly Cloudy with Showers Nearby 63 17 48 9 59 59 WSW 10 17 29.68 1005 30 48 N/A
6:20 pm 18:20 Partly Cloudy with Showers Nearby 57 14 50 10 77 77 W 10 17 29.71 1006 30 48 N/A
6:50 pm 18:50 Mostly Sunny 61 16 50 10 68 68 WSW 7 11 29.71 1006 30 48 N/A
7:20 pm 19:20 Mostly Sunny 61 16 50 10 68 68 VRB 6 9 29.71 1006 30 48 N/A
7:50 pm 19:50 Partly Cloudy with Showers Nearby 61 16 50 10 68 68 WSW 6 9 29.74 1007 30 48 N/A
8:20 pm 20:20 Partly Cloudy 57 14 48 9 72 72 W 12 19 29.77 1008 30 48 N/A
8:50 pm 20:50 Mostly Sunny 57 14 48 9 72 72 W 6 9 29.77 1008 7 11 N/A
9:20 pm 21:20 Mostly Sunny 55 13 48 9 77 77 VRB 1 2 29.77 1008 7 11 N/A
9:50 pm 21:50 Mostly Clear 54 12 48 9 82 82 VRB 2 4 29.80 1009 30 48 N/A
10:20 pm 22:20 Mostly Clear 52 11 48 9 88 88 VRB 2 4 29.80 1009 30 48 N/A
10:50 pm 22:50 Mostly Clear 52 11 48 9 88 88 VRB 2 4 29.80 1009 30 48 N/A
11:20 pm 23:20 Mostly Clear 50 10 48 9 94 94 VRB 2 4 29.80 1009 30 48 N/A
11:50 pm 23:50 Mostly Clear 52 11 48 9 88 88 S 3 6 29.80 1009 30 48 N/A

Powered by AerisWeather